DLH560 EDDF-FNLU

Flight info

Callsign DLH560
Flight time N/A
Altitude 35000
Route ANEKI6E ANEKI Y163 NATOR DCT TRA DCT RIPUS DCT GERSA DCT SOSON DCT ODINA DCT PIDAD DCT TALEP DCT VAREK DCT ERPIN DCT ETOIL/N0466F370 DCT CIRTA UA605 CSO UM998 BOD UR978 AS UA604 ILBIP/N0469F390 UA604 DLA UG861 MESIN UY339 LIKAD UR526 VNA
Aircraft A343/H-SDE2E3FGHIJ4J5M1RWXY/LB1D1

Departure

Time N/A
Airport Frankfurt Main Airport (EDDF)

Arrival

Time 2026-04-27 09:44
Airport Quatro de Fevereiro International Airport (FNLU)
Time Latitude Longitude Altitude Speed Heading
2026-04-27 09:18 -6.90924 12.44156 39004 ft 440 kts 155°
2026-04-27 09:18 -6.93749 12.45349 38990 ft 441 kts 155°
2026-04-27 09:19 -6.99442 12.47682 39006 ft 444 kts 156°
2026-04-27 09:19 -7.04380 12.49794 39003 ft 449 kts 150°
2026-04-27 09:20 -7.09740 12.52990 38649 ft 451 kts 146°
2026-04-27 09:20 -7.12422 12.54676 37726 ft 459 kts 146°
2026-04-27 09:20 -7.15153 12.56405 36865 ft 467 kts 146°
2026-04-27 09:20 -7.17905 12.58151 35934 ft 467 kts 146°
2026-04-27 09:21 -7.20646 12.59890 34629 ft 465 kts 146°
2026-04-27 09:21 -7.23386 12.61631 33069 ft 467 kts 146°
2026-04-27 09:21 -7.26149 12.63388 31628 ft 472 kts 146°
2026-04-27 09:21 -7.28927 12.65155 30911 ft 473 kts 146°
2026-04-27 09:22 -7.31722 12.66933 30114 ft 477 kts 146°
2026-04-27 09:22 -7.34543 12.68728 29216 ft 482 kts 146°
2026-04-27 09:22 -7.37367 12.70524 28684 ft 477 kts 146°
2026-04-27 09:22 -7.40164 12.72303 28126 ft 473 kts 146°
2026-04-27 09:23 -7.42937 12.74067 27547 ft 470 kts 146°
2026-04-27 09:23 -7.45695 12.75823 26989 ft 467 kts 146°
2026-04-27 09:23 -7.48434 12.77567 26414 ft 464 kts 146°
2026-04-27 09:23 -7.51157 12.79301 25840 ft 462 kts 146°
2026-04-27 09:24 -7.53862 12.81024 25273 ft 459 kts 146°
2026-04-27 09:24 -7.56557 12.82741 24718 ft 457 kts 146°
2026-04-27 09:24 -7.59237 12.84448 24133 ft 455 kts 146°
2026-04-27 09:24 -7.61904 12.86148 23564 ft 453 kts 146°
2026-04-27 09:25 -7.64564 12.87843 22905 ft 451 kts 146°
2026-04-27 09:25 -7.67204 12.89526 22316 ft 447 kts 146°
2026-04-27 09:25 -7.69826 12.91197 21747 ft 444 kts 146°
2026-04-27 09:25 -7.72391 12.92832 21185 ft 441 kts 146°
2026-04-27 09:26 -7.74973 12.94479 20614 ft 438 kts 146°
2026-04-27 09:26 -7.77540 12.96116 20062 ft 435 kts 146°
2026-04-27 09:26 -7.80092 12.97744 19492 ft 433 kts 146°
2026-04-27 09:26 -7.82630 12.99362 18936 ft 431 kts 146°
2026-04-27 09:27 -7.85156 13.00974 18363 ft 429 kts 146°
2026-04-27 09:27 -7.87669 13.02578 17782 ft 426 kts 146°
2026-04-27 09:27 -7.90162 13.04169 17198 ft 422 kts 146°
2026-04-27 09:27 -7.92634 13.05746 16660 ft 418 kts 146°
2026-04-27 09:28 -7.95081 13.07308 16115 ft 415 kts 146°
2026-04-27 09:28 -7.97508 13.08858 15565 ft 411 kts 146°
2026-04-27 09:28 -7.99922 13.10400 15027 ft 408 kts 146°
2026-04-27 09:28 -8.02309 13.11924 14497 ft 405 kts 146°
2026-04-27 09:29 -8.04684 13.13441 13950 ft 402 kts 146°
2026-04-27 09:29 -8.07040 13.14947 13376 ft 399 kts 146°
2026-04-27 09:29 -8.09378 13.16441 12824 ft 395 kts 146°
2026-04-27 09:29 -8.11690 13.17918 12297 ft 391 kts 146°
2026-04-27 09:30 -8.13974 13.19377 11773 ft 387 kts 146°
2026-04-27 09:30 -8.16233 13.20821 11366 ft 380 kts 146°
2026-04-27 09:30 -8.18419 13.22217 11239 ft 364 kts 146°
2026-04-27 09:30 -8.20516 13.23556 11140 ft 350 kts 145°
2026-04-27 09:31 -8.22538 13.24849 10997 ft 338 kts 145°
2026-04-27 09:31 -8.24495 13.26101 10861 ft 328 kts 145°
2026-04-27 09:31 -8.26391 13.27314 10727 ft 317 kts 145°
2026-04-27 09:31 -8.28229 13.28490 10599 ft 308 kts 145°
2026-04-27 09:32 -8.30013 13.29631 10478 ft 299 kts 145°
2026-04-27 09:32 -8.31750 13.30743 10293 ft 293 kts 145°
2026-04-27 09:32 -8.33464 13.31841 10050 ft 290 kts 145°
2026-04-27 09:32 -8.35164 13.32930 9759 ft 288 kts 145°
2026-04-27 09:33 -8.36852 13.34012 9451 ft 287 kts 145°
2026-04-27 09:33 -8.38519 13.35104 9108 ft 285 kts 142°
2026-04-27 09:33 -8.40144 13.36183 8667 ft 280 kts 142°
2026-04-27 09:33 -8.41764 13.37242 7949 ft 276 kts 143°
2026-04-27 09:34 -8.43369 13.38281 7594 ft 273 kts 143°
2026-04-27 09:34 -8.44974 13.39320 7268 ft 275 kts 143°
2026-04-27 09:34 -8.46586 13.40360 6955 ft 274 kts 143°
2026-04-27 09:34 -8.48193 13.41393 6641 ft 273 kts 143°
2026-04-27 09:35 -8.49791 13.42419 6429 ft 268 kts 143°
2026-04-27 09:35 -8.51341 13.43409 6308 ft 259 kts 143°
2026-04-27 09:35 -8.52834 13.44361 6197 ft 249 kts 143°
2026-04-27 09:35 -8.54276 13.45280 6097 ft 241 kts 143°
2026-04-27 09:36 -8.55667 13.46167 6009 ft 233 kts 143°
2026-04-27 09:36 -8.57014 13.47027 5865 ft 226 kts 143°
2026-04-27 09:36 -8.58336 13.47872 5674 ft 224 kts 144°
2026-04-27 09:36 -8.59632 13.48740 5433 ft 223 kts 142°
2026-04-27 09:37 -8.61088 13.49297 5121 ft 231 kts 175°
2026-04-27 09:37 -8.62598 13.48876 4912 ft 234 kts 213°
2026-04-27 09:37 -8.63716 13.47712 4775 ft 230 kts 230°
2026-04-27 09:37 -8.64697 13.46446 4568 ft 228 kts 229°
2026-04-27 09:38 -8.65699 13.45199 4390 ft 228 kts 228°
2026-04-27 09:38 -8.66720 13.43979 4164 ft 226 kts 226°
2026-04-27 09:38 -8.67776 13.42810 3922 ft 225 kts 224°
2026-04-27 09:38 -8.68857 13.41663 3706 ft 225 kts 223°
2026-04-27 09:39 -8.69936 13.40526 3505 ft 224 kts 223°
2026-04-27 09:39 -8.71006 13.39386 3284 ft 223 kts 224°
2026-04-27 09:39 -8.72061 13.38248 3067 ft 221 kts 224°
2026-04-27 09:39 -8.73100 13.37118 2997 ft 216 kts 224°
2026-04-27 09:40 -8.74082 13.36043 3012 ft 198 kts 224°
2026-04-27 09:40 -8.74972 13.35068 3013 ft 184 kts 224°
2026-04-27 09:40 -8.75841 13.34121 2915 ft 184 kts 224°
2026-04-27 09:40 -8.76710 13.33177 2674 ft 183 kts 223°
2026-04-27 09:41 -8.77592 13.32234 2422 ft 184 kts 223°
2026-04-27 09:41 -8.78460 13.31303 2183 ft 181 kts 223°
2026-04-27 09:41 -8.79327 13.30370 1947 ft 180 kts 223°
2026-04-27 09:41 -8.80152 13.29479 1727 ft 168 kts 222°
2026-04-27 09:42 -8.80918 13.28654 1512 ft 155 kts 222°
2026-04-27 09:42 -8.81631 13.27886 1314 ft 146 kts 223°
2026-04-27 09:42 -8.82325 13.27140 1126 ft 145 kts 223°
2026-04-27 09:42 -8.83019 13.26392 964 ft 146 kts 223°
2026-04-27 09:43 -8.83719 13.25639 775 ft 147 kts 223°
2026-04-27 09:43 -8.84419 13.24885 589 ft 147 kts 224°
2026-04-27 09:43 -8.85115 13.24135 391 ft 146 kts 223°
2026-04-27 09:43 -8.85803 13.23391 264 ft 140 kts 223°
2026-04-27 09:44 -8.86388 13.22768 246 ft 100 kts 226°
2026-04-27 09:44 -8.86709 13.22366 245 ft 49 kts 257°
2026-04-27 09:44 -8.86808 13.22218 243 ft 19 kts 194°
2026-04-27 09:44 -8.86864 13.22244 243 ft 4 kts 97°
2026-04-27 09:45 -8.86820 13.22306 245 ft 20 kts 46°
2026-04-27 09:45 -8.86676 13.22459 246 ft 40 kts 47°
2026-04-27 09:45 -8.86426 13.22672 246 ft 55 kts 22°
2026-04-27 09:45 -8.86174 13.22731 245 ft 0 kts 311°
2026-04-27 09:46 -8.86172 13.22729 245 ft 0 kts 311°
2026-04-27 09:46 -8.86177 13.22735 245 ft 0 kts 311°
2026-04-27 09:46 -8.86182 13.22741 245 ft 2 kts 311°
2026-04-27 09:47 -8.86183 13.22752 245 ft 2 kts 36°
2026-04-27 09:47 -8.86160 13.22777 245 ft 8 kts 42°
2026-04-27 09:47 -8.86117 13.22809 245 ft 8 kts 41°
2026-04-27 09:47 -8.86079 13.22848 245 ft 8 kts 45°
2026-04-27 09:48 -8.86061 13.22862 246 ft 8 kts 47°
2026-04-27 09:48 -8.86017 13.22919 245 ft 8 kts 44°
2026-04-27 09:48 -8.85980 13.22958 245 ft 4 kts 46°
2026-04-27 09:48 -8.85979 13.22958 245 ft 0 kts 46°